Hourly Data Report for December 03, 2021

KUGAARUK CLIMATE
NUNAVUT
Current Station Operator: ECCC - MSC

68°32'15.060" N
89°47'47.020" W
15.80 m
2303094
71407
NBB

Download Data

Hourly Data (December 2021)
Hourly Data Report for December 3, 2021
TIME
LST
Temp Definition
°C
Dew Point Definition
°C
Rel Hum Definition
%
Precip. Amount Definition
mm

Wind Dir Definition
10's deg

Wind Spd Definition
km/h
Visibility Definition
km
Stn Press Definition
kPa
Hmdx Definition


Wind Chill Definition


Weather Definition


00:00 -19.3 -22.8 73 0.0 31 24   99.74   -31 LegendNANA
01:00 -19.7 -23.1 74 0.0 32 29   99.79   -32 LegendNANA
02:00 -19.8 -23.2 74 0.0 32 26   99.84   -32 LegendNANA
03:00 -20.1 -23.7 73 0.0 32 26   99.86   -32 LegendNANA
04:00 -20.3 -23.9 73 0.0 32 29   99.93   -33 LegendNANA
05:00 -20.5 -24.1 73 0.0 32 28   99.95   -33 LegendNANA
06:00 -20.8 -23.9 76 0.0 32 29   99.97   -33 LegendNANA
07:00 -21.8 -24.8 76 0.0 30 27   100.00   -34 LegendNANA
08:00 -22.8 -26.1 75 0.0 30 25   100.07   -35 LegendNANA
09:00 -23.2 -26.6 73 0.0 30 19   100.10   -34 LegendNANA
10:00 -24.0 -27.3 74 0.0 30 23   100.12   -36 LegendNANA
11:00 -24.9 -28.2 74 0.0 30 27   100.14   -38 LegendNANA
12:00 -25.4 -28.9 73 0.0 30 26   100.15   -39 LegendNANA
13:00 -25.7 -29.1 73 0.0 29 22   100.18   -38 LegendNANA
14:00 -26.2 -29.7 72 0.0 29 26   100.23   -40 LegendNANA
15:00 -26.4 -29.8 73 0.0 28 25   100.22   -40 LegendNANA
16:00 -26.7 -30.3 72 0.0 29 30   100.20   -41 LegendNANA
17:00 -26.9 -30.5 71 0.0 30 29   100.19   -41 LegendNANA
18:00 -26.8 -30.5 71 0.2 30 28   100.16   -41 LegendNANA
19:00 -26.9 -30.4 72 0.0 29 30   100.12   -42 LegendNANA
20:00 -27.0 -30.7 71 0.0 31 30   100.12   -42 LegendNANA
21:00 -26.7 -30.5 71 0.0 30 21   100.08   -39 LegendNANA
22:00 -26.4 -30.1 71 0.0 30 22   100.05   -39 LegendNANA
23:00 -26.4 -30.2 70 0.0 29 25   99.99   -40 LegendNANA

Notes on Data Quality.

Legend

  • E = Estimated
  • M = Missing
  • NA = Not Available*
  • [empty] = Indicates an unobserved value
Date modified: